This demonstration page uses our WeatherBlox Daily Observations layout. Learn more.

Left ArrowRight Arrow

Hourly Observations for March 6, 2015

Temp ( °F °C ) Dew Point ( °F °C ) Humidity (%) Winds ( mph kmh ) Pressure ( in mb ) Visibility ( mi km ) Precip ( " mm )
12:51 am 00:51 Clear 45 7.2 21 -6.1 39 39 SE 8 13 30.24 1024 10 16 0.00 0.00
1:51 am 01:51 Clear 44 6.7 21 -6.1 40 40 SE 12 19 30.24 1024 10 16 0.00 0.00
2:51 am 02:51 Clear 42 5.6 22 -5.6 45 45 SE 8 13 30.24 1024 10 16 0.00 0.00
3:51 am 03:51 Clear 40 4.4 22 -5.6 49 49 ESE 7 11 30.24 1024 10 16 0.00 0.00
4:51 am 04:51 Clear 39 3.9 21 -6.1 48 48 ESE 10 17 30.24 1024 10 16 0.00 0.00
5:51 am 05:51 Clear 39 3.9 21 -6.1 48 48 SE 10 17 30.26 1025 10 16 0.00 0.00
6:51 am 06:51 Sunny 39 3.9 21 -6.1 48 48 SE 12 19 30.28 1025 10 16 0.00 0.00
7:51 am 07:51 Sunny 43 6.1 22 -5.6 43 43 ESE 10 17 30.29 1026 10 16 0.00 0.00
8:51 am 08:51 Sunny 47 8.3 22 -5.6 37 37 SE 12 19 30.30 1026 10 16 0.00 0.00
9:51 am 09:51 Sunny 51 10.6 22 -5.6 32 32 SE 8 13 30.29 1026 10 16 0.00 0.00
10:51 am 10:51 Sunny 56 13.3 21 -6.1 26 26 SE 12 19 30.25 1024 10 16 0.00 0.00
11:51 am 11:51 Sunny 63 17.2 16 -8.9 16 16 ESE 16 26 30.21 1023 10 16 0.00 0.00
12:51 pm 12:51 Sunny 66 18.9 15 -9.4 14 14 SE 18 30 30.16 1021 10 16 0.00 0.00
1:51 pm 13:51 Sunny 70 21.1 12 -11.1 10 10 SE 18 30 30.10 1019 10 16 0.00 0.00
2:51 pm 14:51 Sunny 70 21.1 4 -15.6 7 7 SE 20 31 30.08 1019 10 16 0.00 0.00
3:51 pm 15:51 Sunny 71 21.7 4 -15.6 7 7 SE 18 30 30.06 1018 10 16 0.00 0.00
4:51 pm 16:51 Sunny 69 20.6 3 -16.1 7 7 SE 17 28 30.05 1018 10 16 0.00 0.00
5:51 pm 17:51 Sunny 66 18.9 10 -12.2 11 11 SSE 14 22 30.05 1018 10 16 0.00 0.00
6:51 pm 18:51 Clear 62 16.7 14 -10 15 15 SSE 12 19 30.07 1018 10 16 0.00 0.00
7:51 pm 19:51 Clear 58 14.4 14 -10 18 18 SE 10 17 30.09 1019 10 16 0.00 0.00
8:51 pm 20:51 Clear 54 12.2 14 -10 20 20 SE 8 13 30.11 1020 10 16 0.00 0.00
9:51 pm 21:51 Clear 54 12.2 11 -11.7 18 18 E 9 15 30.11 1020 10 16 0.00 0.00
10:51 pm 22:51 Clear 55 12.8 12 -11.1 18 18 E 12 19 30.09 1019 10 16 0.00 0.00
11:51 pm 23:51 Clear 51 10.6 14 -10 23 23 SSE 10 17 30.09 1019 10 16 0.00 0.00

Powered by AerisWeather